Gwinn, MI

12:24 PM EST on February 26, 2017 (GMT -0500)
Sawyer International

Weather History for KSAW - March, 2012

Change the Weather History Date:

Wednesday, March 14, 2012

  Actual Average (KESC) Record (KESC)
Temperature  
Mean Temperature 43 °F -  
Max Temperature 60 °F 36 °F 49 °F (1964)
Min Temperature 26 °F 19 °F -4 °F (1975)
Degree Days  
Heating Degree Days 22    
Moisture  
Dew Point 27 °F    
Average Humidity 63    
Maximum Humidity 85    
Minimum Humidity 41    
Precipitation  
Precipitation 0.00 in - - ()
Sea Level Pressure  
Sea Level Pressure 29.92 in    
Wind  
Wind Speed 3 mph (South)    
Max Wind Speed 18 mph    
Max Gust Speed 23 mph    
Visibility 10 miles    
Events      
Averages and records for this station are not official NWS values.
T = Trace of Precipitation, MM = Missing Value Source: NWS Daily Summary

Daily Weather History Graph

Daily Weather History Graph

Search for Another Location

Airport or City:

Trip Planner

Search our weather history database for the weather conditions in past years. The results will help you decide how hot, cold, wet, or windy it might be!

Date:

Astronomy

Mar. 14, 2012 Rise Set
Actual Time 8:03 AM EDT 7:54 PM EDT
Civil Twilight 7:33 AM EDT 8:24 PM EDT
Nautical Twilight 6:58 AM EDT 8:59 PM EDT
Astronomical Twilight 6:22 AM EDT 9:35 PM EDT
Moon 2:52 AM EDT (3/14) 11:50 AM EDT (3/14)
Length of Visible Light 12h 51m
Length of Day
11h 51m
Waning Gibbous, 54% of the Moon is Illuminated
Mar 14
Waning Gibbous
Mar 14
Last Quarter
Mar 22
New
Mar 30
First Quarter
Apr 6
Full

Hourly Weather History & Observations

Time (EDT) Temp. Windchill Dew Point Humidity Pressure Visibility Wind Dir Wind Speed Gust Speed Precip Events Conditions
12:16 AM 30.2 °F - 19.6 °F 65% 30.00 in 10.0 mi Calm Calm - N/A   Clear
12:37 AM 30.6 °F - 18.5 °F 61% 30.00 in 10.0 mi Calm Calm - N/A   Clear
12:57 AM 30.6 °F - 18.3 °F 60% 30.00 in 10.0 mi Calm Calm - N/A   Clear
1:16 AM 29.3 °F - 17.6 °F 62% 30.00 in 10.0 mi Calm Calm - N/A   Clear
1:37 AM 29.5 °F - 17.4 °F 61% 30.00 in 10.0 mi Calm Calm - N/A   Clear
1:57 AM 29.1 °F - 21.2 °F 72% 29.99 in 10.0 mi Calm Calm - N/A   Clear
2:16 AM 28.6 °F - 18.9 °F 67% 30.00 in 10.0 mi Calm Calm - N/A   Clear
2:37 AM 27.9 °F - 19.2 °F 70% 30.00 in 10.0 mi Calm Calm - N/A   Clear
2:56 AM 28.4 °F - 19.0 °F 68% 30.00 in 10.0 mi Calm Calm - N/A   Clear
3:17 AM 28.4 °F - 17.6 °F 64% 30.00 in 10.0 mi Calm Calm - N/A   Clear
3:36 AM 29.5 °F - 18.5 °F 64% 29.99 in 10.0 mi Calm Calm - N/A   Clear
3:57 AM 27.9 °F - 18.0 °F 66% 29.99 in 10.0 mi Calm Calm - N/A   Clear
4:17 AM 28.0 °F - 19.6 °F 71% 29.99 in 10.0 mi Calm Calm - N/A   Clear
4:36 AM 26.6 °F - 18.3 °F 71% 29.99 in 10.0 mi Calm Calm - N/A   Clear
4:57 AM 26.6 °F - 19.6 °F 75% 29.99 in 10.0 mi Calm Calm - N/A   Clear
5:16 AM 27.5 °F - 19.4 °F 72% 29.98 in 10.0 mi Calm Calm - N/A   Clear
5:36 AM 28.4 °F - 19.4 °F 69% 29.98 in 10.0 mi Calm Calm - N/A   Clear
5:57 AM 27.9 °F - 19.9 °F 72% 29.97 in 10.0 mi Calm Calm - N/A   Clear
6:55 AM 32.0 °F - 15.8 °F 51% 29.97 in 10.0 mi Calm Calm - N/A   Clear
7:50 AM 33.8 °F - 14.0 °F 44% 29.95 in - Calm Calm - N/A   Clear
8:50 AM 35.6 °F 30.7 °F 15.8 °F 44% 29.95 in 10.0 mi SE 5.8 mph - N/A   Clear
9:55 AM 42.8 °F 37.0 °F 24.8 °F 49% 29.93 in 10.0 mi South 10.4 mph - N/A   Clear
10:50 AM 46.4 °F 41.5 °F 28.4 °F 50% 29.91 in 10.0 mi South 10.4 mph - N/A   Clear
11:55 AM 51.8 °F - 30.2 °F 44% 29.89 in 10.0 mi South 18.4 mph - N/A   Clear
12:50 PM 53.6 °F - 32.0 °F 44% 29.88 in 10.0 mi South 13.8 mph - N/A   Clear
1:50 PM 57.2 °F - 33.8 °F 41% 29.86 in 10.0 mi SSE 17.3 mph 23.0 mph N/A   Clear
2:50 PM 59.0 °F - 37.4 °F 45% 29.80 in 10.0 mi South 17.3 mph 23.0 mph N/A   Clear
3:50 PM 60.8 °F - 39.2 °F 45% 29.79 in 10.0 mi South 18.4 mph - N/A   Clear
4:50 PM 60.8 °F - 41.0 °F 48% 29.79 in 10.0 mi South 13.8 mph - N/A   Clear
5:55 PM 59.0 °F - 41.0 °F 51% 29.79 in 10.0 mi South 13.8 mph - N/A   Clear
6:50 PM 57.2 °F - 41.0 °F 55% 29.81 in 10.0 mi South 9.2 mph - N/A   Clear
7:50 PM 53.6 °F - 41.0 °F 62% 29.82 in 10.0 mi South 8.1 mph - N/A   Clear
8:50 PM 50.0 °F - 41.0 °F 71% 29.84 in 10.0 mi South 6.9 mph - N/A   Clear
9:50 PM 48.2 °F - 41.0 °F 76% 29.85 in 10.0 mi SSW 3.5 mph - N/A   Clear
10:17 PM 48.2 °F - 41.4 °F 77% 29.86 in 10.0 mi SSW 3.5 mph - N/A   Clear
10:36 PM 46.6 °F - 40.3 °F 79% 29.87 in 10.0 mi Calm Calm - N/A   Clear
10:57 PM 44.1 °F - 39.2 °F 83% 29.88 in 10.0 mi Calm Calm - N/A   Clear
11:16 PM 43.3 °F 40.7 °F 39.2 °F 85% 29.89 in 10.0 mi NW 4.6 mph - N/A   Clear
11:37 PM 45.0 °F - 39.9 °F 82% 29.89 in 10.0 mi Calm Calm - N/A   Clear
11:57 PM 46.0 °F - 40.6 °F 81% 29.88 in 10.0 mi Calm Calm - N/A   Clear